Location: Arbon
(43.0005°N, 0.7472°E)
Time: 11:22:59
(UTC+00:00)

deb Explorer IX - Visible Passes

Search period start: 20 June 2021 00:00
Search period end: 30 June 2021 00:00
Orbit: 542 x 1096 km, 38.8° (Epoch: 19 June)

Date Brightness Start Highest point End Pass type
(mag) Time Alt. Az. Time Alt. Az. Time Alt. Az.
25 Jun ? 03:20:34 10° SSW 03:24:01 20° SSE 03:27:13 10° ESE visible
26 Jun ? 02:57:34 14° SSW 03:00:10 21° SSE 03:03:30 10° ESE visible
27 Jun ? 02:34:39 18° S 02:36:18 22° SSE 02:39:48 10° ESE visible
28 Jun ? 02:11:39 22° S 02:12:25 23° SSE 02:16:05 10° ESE visible
29 Jun ? 01:48:38 23° SSE 01:48:38 23° SSE 01:52:22 10° ESE visible
29 Jun ? 03:30:05 10° WSW 03:34:53 45° S 03:39:06 10° E visible
